Flag for U.S.A. Weather past 2 weeks in Lakewood, New Jersey, U.S.A.

Now
30 °F

Overcast.


Feels Like: 30 °F
Forecast: 36 / 44 °F
Wind: No wind

Location: Belmar-Farmdale

Current Time: Mar 3, 2015 at 7:24:50 PM

Latest Report: Mar 3, 2015 at 6:55 PM


Visibility: 4 mi

Pressure: 30.11 "Hg

Humidity: 86%

Dew point: 27 °F

Location of LakewoodLocation

Historic Weather in Lakewood — Graph

°F

Lakewood temperature yesterday

Maximum temperature yesterday: 39 °F (at 3:15 PM)
Minimum temperature yesterday: 28 °F (at 10:55 PM)
Average temperature yesterday: 34 °F

Past Weeks' High & Low Weather Summary

 TemperatureHumidityPressure
High43 °F (Feb 22, 1:55 PM)86% (Feb 21, 7:35 PM)30.81 "Hg (Feb 21, 7:35 PM)
Low0 °F (Feb 20, 6:55 AM)28% (Feb 23, 4:35 PM)29.73 "Hg (Feb 18, 3:15 PM)
Average23 °F55%30.19 "Hg
* Reported Feb 16 6:15 PM — Mar 3 6:15 PM, Lakewood, Weather by CustomWeather, © 2015

Note: Actual official high and low records may vary slightly from our data, if they occured in-between our weather recording intervals... More about our weather records

Advertising

Lakewood weather history for previous 24 hours

 ConditionsComfort  
Time TempWeatherWind HumidityBarometerVisibility
6:15 PM
Tue, Mar 3
30 °FMostly cloudy.6 mph80%30.12 "Hg5 mi
5:55 PM30 °FPartly cloudy.3 mph80%30.15 "Hg3 mi
5:35 PM28 °FMore clouds than sun.No wind80%30.16 "Hg3 mi
5:15 PM28 °FOvercast.6 mph80%30.17 "Hg5 mi
4:55 PM28 °FMostly cloudy.8 mph74%30.16 "Hg2 mi
4:35 PM30 °FMostly cloudy.8 mph64%30.20 "Hg1 mi
4:15 PM30 °FMostly cloudy.8 mph59%30.21 "Hg8 mi
3:55 PM30 °FOvercast.7 mph59%30.22 "Hg10 mi
3:35 PM32 °FOvercast.9 mph55%30.25 "Hg10 mi
3:15 PM32 °FOvercast.9 mph55%30.24 "Hg10 mi
2:55 PM30 °FMostly cloudy.7 mph59%30.27 "Hg10 mi
2:35 PM30 °FMostly cloudy.10 mph59%30.28 "Hg10 mi
2:15 PM30 °FOvercast.10 mph55%30.28 "Hg10 mi
1:55 PM30 °FMostly cloudy.10 mph55%30.29 "Hg10 mi
1:35 PM30 °FMostly cloudy.10 mph55%30.31 "Hg10 mi
1:15 PM30 °FOvercast.10 mph55%30.33 "Hg10 mi
12:55 PM30 °FOvercast.10 mph55%30.35 "Hg10 mi
12:35 PM30 °FPartly sunny.9 mph55%30.36 "Hg10 mi
11:55 AM30 °FPassing clouds.7 mph55%30.39 "Hg10 mi
11:15 AM28 °FPassing clouds.6 mph55%30.41 "Hg10 mi
10:55 AM28 °FPassing clouds.7 mph51%30.41 "Hg10 mi
10:35 AM28 °FPassing clouds.8 mph55%30.41 "Hg10 mi
10:15 AM28 °FSunny.3 mph51%30.42 "Hg10 mi
9:55 AM28 °FSunny.No wind47%30.43 "Hg10 mi
9:35 AM27 °FSunny.7 mph50%30.42 "Hg10 mi
9:15 AM27 °FSunny.3 mph46%30.44 "Hg10 mi
8:55 AM27 °FSunny.No wind46%30.44 "Hg10 mi
8:35 AM25 °FSunny.5 mph50%30.45 "Hg10 mi
8:15 AM25 °FSunny.6 mph50%30.45 "Hg10 mi
7:55 AM23 °FSunny.6 mph54%30.44 "Hg10 mi
7:35 AM23 °FSunny.6 mph54%30.43 "Hg10 mi
7:15 AM21 °FSunny.3 mph58%30.42 "Hg10 mi
6:55 AM21 °FSunny.3 mph58%30.43 "Hg10 mi
6:35 AM21 °FSunny.5 mph54%30.43 "Hg10 mi
6:15 AM19 °FClear.5 mph58%30.43 "Hg10 mi
5:55 AM19 °FClear.No wind58%30.41 "Hg10 mi
5:35 AM21 °FClear.3 mph54%30.42 "Hg10 mi
5:15 AM21 °FClear.5 mph54%30.41 "Hg10 mi
4:55 AM21 °FClear.6 mph54%30.40 "Hg10 mi
4:35 AM21 °FClear.6 mph54%30.40 "Hg10 mi
4:15 AM23 °FClear.5 mph50%30.39 "Hg10 mi
3:55 AM23 °FClear.5 mph50%30.39 "Hg10 mi
3:35 AM25 °FClear.7 mph46%30.39 "Hg10 mi
3:15 AM25 °FClear.6 mph50%30.39 "Hg10 mi
2:55 AM25 °FClear.8 mph50%30.38 "Hg10 mi
2:15 AM25 °FClear.6 mph50%30.39 "Hg10 mi
1:55 AM25 °FClear.No wind50%30.40 "Hg10 mi
1:35 AM27 °FClear.8 mph46%30.38 "Hg10 mi
1:15 AM27 °FClear.10 mph46%30.38 "Hg10 mi
12:55 AM27 °FClear.7 mph46%30.38 "Hg10 mi
12:35 AM28 °FClear.8 mph43%30.37 "Hg10 mi
12:15 AM28 °FClear.12 mph43%30.36 "Hg10 mi
11:55 PM
Mon, Mar 2
28 °FClear.7 mph43%30.37 "Hg10 mi
11:35 PM28 °FClear.9 mph43%30.36 "Hg10 mi
11:15 PM28 °FClear.12 mph43%30.36 "Hg10 mi
10:55 PM28 °FClear.3 mph43%30.35 "Hg10 mi
10:35 PM30 °FClear.6 mph40%30.34 "Hg10 mi
9:55 PM30 °FClear.12 mph40%30.33 "Hg10 mi
9:35 PM30 °FClear.13 mph40%30.32 "Hg10 mi
9:15 PM32 °FClear.9 mph37%30.31 "Hg10 mi
8:55 PM30 °FClear.9 mph43%30.30 "Hg10 mi
8:35 PM30 °FClear.3 mph47%30.30 "Hg10 mi
8:15 PM32 °FClear.8 mph44%30.28 "Hg10 mi
7:55 PM32 °FClear.7 mph44%30.28 "Hg10 mi
7:35 PM34 °FClear.8 mph41%30.28 "Hg10 mi
7:15 PM34 °FClear.6 mph41%30.27 "Hg10 mi
Weather by CustomWeather, © 2015

See weather overviewHow to use our weather pages